Epoch 2024 Oct. 17.0 TT = JDT 2460600.5 T 2024 Dec. 30.54749 TT Rudenko q 2.2997160 (2000.0) P Q n 0.22271916 Peri. 353.13603 +0.99612452 -0.08694437 a 2.6954483 Node 11.87635 +0.08345512 +0.88660967 e 0.1468150 Incl. 3.70257 +0.02777031 +0.45427301 P 4.43 >From 74 observations 2018 Mar. 18-2024 June 29, mean residual 0".3.
H = 19.0 G = 0.15 [ ,-620] ( 〜2023年 4月20日) m1 = 2.3 + 5 logΔ + 40 log r(t + 800) [-620, 0] (2023年 4月20日〜2024年12月30日) H = 19.0 G = 0.15 [ 0, ] (2024年12月30日〜 )